KLRF

Little Rock Air Force Base

Airport
ICAO code
KLRF
Summary
ICAO Region
NAM
ICAO Territory
Location

Little Rock, Arkansas,

Coordinates
34° 54' 50" N , 92° 8' 38" W
KCC
Metar
Observation
KLRF 311755Z AUTO 19012G20KT 10SM BKN030 OVC038 24/18 A2976 RMK AO2 SLP078 T02360180 10247 20193 57028
Station
Little Rock Air Force Base
Date/Time
2023-03-31 17:55:00
Wind direction
190°
Wind speed
12 kts
Lowest cloud amount
broken clouds
Temperature
23.6°C
Dew point
18°C
Humidity
70%
Weather condition
n/a

Description

Little Rock Air Force Base is a United States Air Force base located approximately 27 km northeast of the central business district of Little Rock, Arkansas.

Climatology

Humid “subtropical” climate (Köppen climate classification Cfa) - characterized by hot, humid summers and cool winters. Significant amounts of precipitation occur in all seasons in most areas. Winter rainfall (and sometimes snowfall) is associated with large storms that the westerlies steer from west to east. Most summer rainfall occurs during thunderstorms and occasional tropical storms (hurricanes).

Runways

Designator Length Width Surface Rops
69/249 1061 18 ASPH No/No
7/25 3658 61 CON No/No

Airport map

Aerial View

SKYbrary Partners:

Safety knowledge contributed by: